KE0FIN Weather Reports


Display with metric or nautical units.
time (UTC)temp
F
wind
direction
speed
MPH
gust
MPH
rain 1hr
in
rain 24hr
in
rain mn
in
humidity
%
barometer
mb
20260505041427 71 130 0.0 0.0 0.00 0.00 0.00 69 1053.8
20260505040925 71 130 0.0 0.0 0.00 0.00 0.00 68 1053.9
20260505040422 71 130 0.0 0.0 0.00 0.00 0.00 68 1054.1
20260505035919 72 130 0.0 0.0 0.00 0.00 0.00 68 1053.7
20260505035415 72 130 0.0 1.0 0.00 0.00 0.00 67 1053.7
20260505034912 72 131 0.0 0.0 0.00 0.00 0.00 66 1053.7
20260505034409 72 134 0.0 1.0 0.00 0.00 0.00 65 1053.4
20260505033906 73 114 1.0 1.0 0.00 0.00 0.00 65 1053.6
20260505033402 73 131 1.0 2.0 0.00 0.00 0.00 64 1053.6
20260505032901 73 135 0.0 2.0 0.00 0.00 0.00 64 1053.8
20260505032357 73 133 1.0 1.0 0.00 0.00 0.00 63 1053.5
20260505031854 73 136 1.0 2.0 0.00 0.00 0.00 62 1053.7
20260505031351 74 132 0.0 1.0 0.00 0.00 0.00 62 1053.7
20260505030848 74 121 0.0 3.0 0.00 0.00 0.00 61 1053.8
20260505030344 74 119 1.0 1.0 0.00 0.00 0.00 61 1053.6
20260505025839 74 146 1.0 2.0 0.00 0.00 0.00 61 1053.4
20260505025337 74 137 1.0 2.0 0.00 0.00 0.00 61 1053.5
20260505024836 74 128 0.0 1.0 0.00 0.00 0.00 60 1053.6
20260505024333 74 131 1.0 2.0 0.00 0.00 0.00 59 1053.7
20260505023830 74 135 0.0 1.0 0.00 0.00 0.00 58 1053.9
20260505023327 74 165 2.0 2.0 0.00 0.00 0.00 58 1053.7
20260505022824 75 156 1.0 6.0 0.00 0.00 0.00 57 1053.6
20260505022321 75 152 2.0 2.0 0.00 0.00 0.00 57 1053.7
20260505021818 75 159 1.0 2.0 0.00 0.00 0.00 56 1053.4
20260505021315 75 177 2.0 3.0 0.00 0.00 0.00 56 1053.6
20260505020810 75 134 1.0 2.0 0.00 0.00 0.00 55 1053.1
20260505020306 75 142 1.0 3.0 0.00 0.00 0.00 55 1053.2
20260505015803 75 135 0.0 2.0 0.00 0.00 0.00 55 1053.2
20260505015300 75 133 1.0 2.0 0.00 0.00 0.00 55 1053.3
20260505014758 75 154 1.0 2.0 0.00 0.00 0.00 54 1053.1
20260505014255 76 132 0.0 1.0 0.00 0.00 0.00 54 1052.9
20260505013751 76 137 0.0 1.0 0.00 0.00 0.00 53 1052.8
20260505013248 76 134 0.0 0.0 0.00 0.00 0.00 52 1052.7
20260505012747 77 129 1.0 2.0 0.00 0.00 0.00 51 1052.5
20260505012244 77 136 1.0 1.0 0.00 0.00 0.00 51 1052.7
20260505011739 77 134 0.0 1.0 0.00 0.00 0.00 51 1052.4
20260505011237 77 131 0.0 1.0 0.00 0.00 0.00 51 1052.4
20260505010732 77 133 0.0 1.0 0.00 0.00 0.00 50 1052.4
20260505010228 78 136 1.0 2.0 0.00 0.00 0.00 49 1052.4
20260505005725 78 142 1.0 2.0 0.00 0.00 0.00 48 1052.3
20260505005222 78 131 0.0 1.0 0.00 0.00 0.00 48 1052.2
20260505004719 78 150 1.0 1.0 0.00 0.00 0.00 47 1052.3
20260505004216 79 136 1.0 3.0 0.00 0.00 0.00 47 1052.1
20260505003713 79 149 1.0 2.0 0.00 0.00 0.00 46 1051.8
20260505003211 79 133 1.0 1.0 0.00 0.00 0.00 46 1051.9
20260505002707 79 192 2.0 4.0 0.00 0.00 0.00 46 1052.1
20260505002205 80 134 2.0 6.0 0.00 0.00 0.00 46 1052.3
20260505001701 80 132 1.0 6.0 0.00 0.00 0.00 45 1052.2
20260505001159 80 145 1.0 6.0 0.00 0.00 0.00 45 1052.3
20260505000656 80 112 1.0 6.0 0.00 0.00 0.00 45 1052.7
20260505000154 80 159 2.0 3.0 0.00 0.00 0.00 45 1052.6
20260504235650 81 197 4.0 8.0 0.00 0.00 0.00 44 1052.5
20260504235146 81 186 3.0 6.0 0.00 0.00 0.00 44 1052.4
20260504234644 81 200 4.0 4.0 0.00 0.00 0.00 43 1052.4
20260504234141 82 132 2.0 6.0 0.00 0.00 0.00 43 1052.5
20260504233637 82 144 2.0 2.0 0.00 0.00 0.00 43 1052.3
20260504233133 82 154 2.0 7.0 0.00 0.00 0.00 43 1052.5
20260504232631 82 220 4.0 8.0 0.00 0.00 0.00 42 1052.5
20260504232127 83 189 4.0 4.0 0.00 0.00 0.00 42 1052.4
20260504231624 84 199 4.0 8.0 0.00 0.00 0.00 41 1052.5
20260504231120 84 146 2.0 3.0 0.00 0.00 0.00 41 1052.2
20260504230616 83 200 3.0 6.0 0.00 0.00 0.00 41 1052.6
20260504230116 84 146 2.0 6.0 0.00 0.00 0.00 41 1052.4
20260504225613 84 206 3.0 3.0 0.00 0.00 0.00 40 1052.4
20260504225109 85 181 3.0 4.0 0.00 0.00 0.00 39 1052.5
20260504224606 85 187 2.0 6.0 0.00 0.00 0.00 39 1052.4
20260504224103 86 132 2.0 4.0 0.00 0.00 0.00 38 1052.5
20260504223600 86 202 2.0 7.0 0.00 0.00 0.00 36 1052.5
20260504223055 86 176 2.0 8.0 0.00 0.00 0.00 36 1052.2
20260504222553 87 166 2.0 6.0 0.00 0.00 0.00 36 1052.3
20260504222050 87 162 2.0 4.0 0.00 0.00 0.00 33 1052.1
20260504221547 88 152 3.0 4.0 0.00 0.00 0.00 33 1052.2
20260504221044 87 145 1.0 2.0 0.00 0.00 0.00 33 1052.4
20260504220540 87 124 0.0 2.0 0.00 0.00 0.00 35 1052.2
20260504220037 88 144 1.0 2.0 0.00 0.00 0.00 34 1052.3
20260504215534 89 178 4.0 6.0 0.00 0.00 0.00 33 1052.4
20260504215032 88 215 2.0 3.0 0.00 0.00 0.00 33 1052.4
20260504214527 87 166 1.0 4.0 0.00 0.00 0.00 34 1052.5
20260504214024 89 203 2.0 6.0 0.00 0.00 0.00 33 1052.5
20260504213521 88 118 1.0 2.0 0.00 0.00 0.00 33 1052.7
20260504213018 87 143 0.0 4.0 0.00 0.00 0.00 33 1052.5
20260504212513 87 134 2.0 8.0 0.00 0.00 0.00 33 1052.8
20260504212011 87 180 2.0 6.0 0.00 0.00 0.00 32 1053.0
20260504211508 86 168 2.0 3.0 0.00 0.00 0.00 33 1053.0
20260504211005 86 123 1.0 3.0 0.00 0.00 0.00 33 1053.1
20260504210502 87 119 2.0 2.0 0.00 0.00 0.00 31 1053.1
20260504205958 86 142 1.0 3.0 0.00 0.00 0.00 31 1053.2
20260504205456 87 253 2.0 3.0 0.00 0.00 0.00 31 1053.3
20260504204954 86 137 0.0 2.0 0.00 0.00 0.00 34 1053.4
20260504204452 86 151 1.0 2.0 0.00 0.00 0.00 32 1053.3
20260504203951 85 141 0.0 4.0 0.00 0.00 0.00 33 1053.5
20260504203448 86 159 2.0 3.0 0.00 0.00 0.00 32 1053.6
20260504202944 86 343 0.0 3.0 0.00 0.00 0.00 32 1053.6
20260504202441 85 115 1.0 2.0 0.00 0.00 0.00 33 1053.8
20260504201938 84 143 0.0 2.0 0.00 0.00 0.00 33 1053.7
20260504201435 86 133 1.0 2.0 0.00 0.00 0.00 34 1054.1
20260504200932 86 116 1.0 2.0 0.00 0.00 0.00 31 1054.0
20260504200429 84 124 1.0 2.0 0.00 0.00 0.00 34 1054.1
20260504195926 84 120 2.0 2.0 0.00 0.00 0.00 36 1054.1
20260504195422 84 141 0.0 1.0 0.00 0.00 0.00 36 1054.3
20260504194918 84 123 2.0 3.0 0.00 0.00 0.00 35 1054.4
20260504194414 83 131 1.0 1.0 0.00 0.00 0.00 35 1054.4
20260504193910 83 236 3.0 3.0 0.00 0.00 0.00 34 1054.4
20260504193408 83 158 1.0 2.0 0.00 0.00 0.00 34 1054.6
20260504192907 82 128 0.0 3.0 0.00 0.00 0.00 34 1054.6
20260504192403 83 144 0.0 1.0 0.00 0.00 0.00 32 1054.6
20260504191902 83 150 0.0 0.0 0.00 0.00 0.00 33 1054.6
20260504191400 84 137 1.0 2.0 0.00 0.00 0.00 32 1054.8
20260504190855 84 184 3.0 4.0 0.00 0.00 0.00 32 1054.7
20260504190351 84 139 0.0 2.0 0.00 0.00 0.00 34 1054.7
20260504185848 83 162 2.0 2.0 0.00 0.00 0.00 34 1055.1
20260504185345 83 146 1.0 4.0 0.00 0.00 0.00 34 1054.9
20260504184841 82 100 1.0 1.0 0.00 0.00 0.00 34 1055.0
20260504184337 82 111 1.0 2.0 0.00 0.00 0.00 34 1055.1
20260504183833 82 166 1.0 3.0 0.00 0.00 0.00 35 1055.2
20260504183330 81 158 1.0 3.0 0.00 0.00 0.00 37 1055.2
20260504182828 80 152 1.0 3.0 0.00 0.00 0.00 38 1055.3
20260504182325 81 134 0.0 2.0 0.00 0.00 0.00 37 1055.3
20260504181822 80 124 2.0 3.0 0.00 0.00 0.00 38 1055.3
20260504181319 80 83 3.0 4.0 0.00 0.00 0.00 39 1055.3
20260504180818 80 158 1.0 6.0 0.00 0.00 0.00 40 1055.4
20260504180316 79 91 1.0 2.0 0.00 0.00 0.00 42 1055.3
20260504175814 79 179 3.0 4.0 0.00 0.00 0.00 40 1055.3
20260504175311 79 208 2.0 4.0 0.00 0.00 0.00 40 1055.2
20260504174809 80 156 4.0 7.0 0.00 0.00 0.00 38 1055.4
20260504174306 80 111 3.0 6.0 0.00 0.00 0.00 39 1055.5
20260504173802 80 129 4.0 6.0 0.00 0.00 0.00 41 1055.5
20260504173259 79 128 0.0 3.0 0.00 0.00 0.00 39 1055.4
20260504172756 80 187 2.0 4.0 0.00 0.00 0.00 40 1055.6
20260504172253 79 147 1.0 2.0 0.00 0.00 0.00 41 1055.3
20260504171749 78 121 1.0 3.0 0.00 0.00 0.00 42 1055.4
20260504171246 78 149 1.0 3.0 0.00 0.00 0.00 41 1055.6
20260504170743 77 173 1.0 4.0 0.00 0.00 0.00 42 1055.6
20260504170240 77 137 2.0 6.0 0.00 0.00 0.00 43 1055.6
20260504160159 73 280 2.0 6.0 0.00 0.00 0.00 50 1055.6
20260504151126 71 133 1.0 4.0 0.00 0.00 0.00 51 1055.4
20260504150624 70 163 2.0 8.0 0.00 0.00 0.00 51 1055.2
20260504150121 70 134 0.0 1.0 0.00 0.00 0.00 54 1055.4
20260504141049 68 187 2.0 2.0 0.00 0.00 0.00 54 1055.7
20260504140546 68 115 1.0 6.0 0.00 0.00 0.00 53 1055.5
20260504130510 63 146 1.0 3.0 0.00 0.00 0.00 59 1055.6
20260504110357 62 178 2.0 4.0 0.00 0.00 0.00 56 1055.4
20260504100315 64 143 2.0 7.0 0.00 0.00 0.00 53 1055.9
20260504081708 66 126 1.0 2.0 0.00 0.00 0.00 49 1056.5
20260504081204 66 161 2.0 6.0 0.00 0.00 0.00 48 1056.6
20260504080701 67 183 4.0 6.0 0.00 0.00 0.00 48 1056.7
20260504080157 67 176 3.0 6.0 0.00 0.00 0.00 47 1056.5
20260504070125 68 192 4.0 7.0 0.00 0.00 0.00 45 1057.3
20260504050514 70 191 2.0 4.0 0.00 0.00 0.00 40 1058.3
20260504050011 70 192 3.0 4.0 0.00 0.00 0.00 39 1058.3
20260504045508 70 164 3.0 4.0 0.00 0.00 0.00 39 1058.3
20260504045003 71 172 2.0 4.0 0.00 0.00 0.00 38 1058.2
20260504044501 71 180 6.0 8.0 0.00 0.00 0.00 38 1058.2
20260504043957 71 151 2.0 10.0 0.00 0.00 0.00 37 1058.2
20260504043454 71 141 1.0 3.0 0.00 0.00 0.00 37 1058.3
20260504042952 71 151 1.0 6.0 0.00 0.00 0.00 36 1058.1
20260504042448 72 173 3.0 6.0 0.00 0.00 0.00 36 1058.3